Regional Weather Roundup
Issued by NWS

Home | Current Version | Previous Version | Graphics & Text | Print | Product List | Glossary On
Versions: 1 2 3 4 5 6 7 8 9 10 11 12 13 14 15 16 17 18 19 20 21 22 23 24 25 26 27 28 29 30 31 32 33 34 35 36 37 38 39 40 41 42 43 44 45 46 47 48 49 50
000
ASUS43 KTOP 010108
RWRKS

WEATHER ROUNDUP FOR KANSAS
NATIONAL WEATHER SERVICE GOODLAND KS
800 PM CDT TUE SEP 30 2014

NOTE:  "FAIR" INDICATES FEW OR NO CLOUDS BELOW 12,000 FEET WITH NO
SIGNIFICANT WEATHER AND/OR OBSTRUCTIONS TO VISIBILITY.

KSZ001>006-013>018-027>032-041>047-010200-
NORTHWEST KANSAS

CITY           SKY/WX    TMP DP  RH WIND       PRES   REMARKS
GOODLAND       PTCLDY    62  46  55 S8        29.77S
HAYS           CLEAR     70  61  73 NE8       29.68R
HILL CITY      CLEAR     68  56  65 NE7       29.70R
RUSSELL        MOCLDY    68  63  84 E8        29.67F
$$

KSZ061>065-074>080-084>089-010200-
SOUTHWEST KANSAS

CITY           SKY/WX    TMP DP  RH WIND       PRES   REMARKS
DODGE CITY     PTCLDY    72  46  39 W9        29.70R
GARDEN CITY    CLEAR     65  49  56 W8        29.72F
GREAT BEND     MOCLDY    70  63  78 S8        29.66S
LIBERAL        CLEAR     68  41  37 NW8       29.73S
PRATT          MOCLDY    77  55  47 S12       29.68S
$$

KSZ066>073-081>083-090>101-010200-
SOUTHEAST KANSAS

CITY           SKY/WX    TMP DP  RH WIND       PRES   REMARKS
CHANUTE        CLEAR     74  62  66 SE8       29.78S
COFFEYVILLE    CLEAR     75  62  64 SE10      29.77F
HUTCHINSON     MOCLDY    80  57  45 SE22G32   29.66F
MEDICINE LODGE   N/A     81  57  43 S8        29.65F
NEWTON         PTCLDY    75  57  53 S14       29.73F
PARSONS        CLEAR     75  63  66 SE7       29.79S
WICHITA INTL   MOCLDY    78  60  53 SE13      29.70S
WICHITA JABRA  PTCLDY    78  59  51 SE14G23   29.71S
WICHITA MCCONL PTCLDY    78  60  53 SE16      29.71F
WINFIELD       PTCLDY    77  62  59 SE14      29.74S
$$

KSZ007>012-019>026-033>040-048>060-102>105-010200-
NORTHEAST KANSAS

CITY           SKY/WX    TMP DP  RH WIND       PRES   REMARKS
CONCORDIA      RAIN      67  67 100 NE7       29.73R FOG
EMPORIA        CLEAR     75  62  64 SE14      29.75R
LAWRENCE       PTCLDY    73  58  59 SE8       29.77S
MANHATTAN      MOCLDY    78  62  57 S12       29.71R
MARYSVILLE     TSTM      66  64  94 CALM      29.75R
OLATHE IND     PTCLDY    74  57  55 SE7       29.79S
OLATHE EXE     CLEAR     73  58  59 SE7       29.79S
SALINA         TSTM      77  62  59 SE15      29.67S
TOPEKA BILLARD PTCLDY    76  59  55 SE8       29.75S
TOPEKA FORBES  PTCLDY    76  59  55 SE9       29.76R
$$



USA.gov is the U.S. government's official web portal to all federal, state and local government web resources and services.